Regional Weather Roundup
Issued by NWS

Home | Current Version | Previous Version | Graphics & Text | Print | Product List | Glossary On
Versions: 1 2 3 4 5 6 7 8 9 10 11 12 13 14 15 16 17 18 19 20 21 22 23 24 25 26 27 28 29 30 31 32 33 34 35 36 37 38 39 40 41 42 43 44 45 46 47 48 49 50
000
ASUS45 KTFX 260504
RWRMT
MONTANA HOURLY WEATHER ROUNDUP
NATIONAL WEATHER SERVICE GREAT FALLS MT
1004 PM MST TUE NOV 25 2014

NOTE: "FAIR" INDICATES FEW OR NO CLOUDS BELOW 12000 FEET WITH NO
SIGNIFICANT WEATHER AND/OR OBSTRUCTIONS TO VISIBILITY.

* THESE STATIONS ARE NOT UNDER NWS QUALITY CONTROL. THEY DO NOT
   REPORT WEATHER SUCH AS PRECIPITATION OR FOG.

MTZ001>007-043-260600-
WEST OF THE DIVIDE
CITY           SKY/WX    TMP DP  RH WIND       PRES   REMARKS
KALISPELL      FOG       34  32  92 CALM      30.15R
MISSOULA       LGT SNOW  30  30 100 CALM      30.17S VSB 3/4
BUTTE          LGT SNOW  27  27 100 CALM      30.10F VSB 2 1/2
MULLAN PASS    LGT SNOW  27  25  92 S7        30.06S VSB 1    WCI  19
* ESSEX        N/A       31  29  92 N/A        N/A
* LINCOLN      N/A       29  28  96 S5         N/A   WCI  24
* LOOKOUT PASS N/A       29  29 100 NE1        N/A
* POLSON       N/A       31  31 100 N/A        N/A
* RONAN APT    CLOUDY    32  30  92 N/A        N/A
* SEELEY LAKE  N/A       30  29  96 S1         N/A
* THOMP F APT  CLOUDY    33  31  92 N3         N/A
* YAAK HILL    N/A       32  30  92 N/A        N/A
$$

MTZ008-052>055-260600-
SOUTHWEST MONTANA
CITY           SKY/WX    TMP DP  RH WIND       PRES   REMARKS
BOZEMAN        LGT SNOW  30  28  92 N6        30.14S VSB 3    WCI  24
DILLON         LGT SNOW  30  28  92 NE9       30.09R VSB 2    WCI  22
* W YELLOWSTON PTCLDY    30  29  96 W3G8       N/A
* ENNIS APT    CLOUDY    30  28  92 N/A        N/A
* THREE FORKS  CLOUDY    30   0  27 N/A        N/A
* BOULDER HILL N/A       26  23  88 VRB4       N/A
* MONIDA PASS  N/A       31  31 100 SW3        N/A
* RAYNOLDS PAS N/A       27  26  96 N8         N/A   WCI  19
* WHITEHALL    N/A       31  30  96 E3         N/A
* WISE RIVER   N/A       29  28  96 SE6        N/A   WCI  23
$$

MTZ009>010-012-014-046-048-049-054-260600-
EAST SLOPES AND CENTRAL MONTANA
CITY           SKY/WX    TMP DP  RH WIND       PRES   REMARKS
CUT BANK       CLOUDY    30  19  64 SE5       30.11S WCI  25
GREAT FALLS    CLOUDY    30  25  82 S10       30.13R WCI  21
HELENA         LGT SNOW  32  30  92 S3        30.13F VSB 1 1/4
* DEARBORN     N/A       32  26  79 S2         N/A
* EAST GLACIER N/A       24  18  78 NE3        N/A
* MONARCH      N/A       23  18  81 S6G11      N/A   WCI  16
* PENDROY      N/A       27  25  92 SE4        N/A
* ROGERS PASS  N/A       27  24  88 E3         N/A
* SAINT MARY   N/A       27  18  69 SW2        N/A
* SWEET GRASS  N/A       28  23  81 W6         N/A   WCI  21
$$

MTZ011-013-016-021-035-040-045-047-050-051-260600-
NORTH CENTRAL MONTANA
CITY           SKY/WX    TMP DP  RH WIND       PRES   REMARKS
HAVRE          CLOUDY    28  23  81 NW5       30.17R WCI  22
LEWISTOWN      CLOUDY    28  23  81 W9        30.13R WCI  19
* N BAR RANCH  CLOUDY    27  21  78 NW12      30.10R WCI  16
* CHESTER      N/A       30  23  75 W6G11      N/A   WCI  24
* DENTON       N/A       30  22  72 W9         N/A   WCI  22
* JUDITH GAP   N/A       27  18  69 NW9        N/A   WCI  18
* LOMA         N/A       33  24  70 W3         N/A
$$

MTZ017>020-022>027-061-062-260600-
NORTHEAST MONTANA
CITY           SKY/WX    TMP DP  RH WIND       PRES   REMARKS
GLASGOW        CLOUDY    21  16  81 N8        30.18R WCI  11
GLENDIVE       CLOUDY    25  21  85 NW9       30.15R WCI  16
JORDAN         CLOUDY    25  21  85 NW8       30.15R WCI  16
SIDNEY         CLOUDY    25  18  75 N13       30.17R WCI  13
WOLF POINT     CLOUDY    25  18  75 N10       30.19R WCI  15
* BEAVER HILL  N/A       22  20  92 N13        N/A   WCI  10
* CIRCLE       N/A       25  22  88 N4         N/A
* LINDSAY DVD  N/A       21  20  96 NW10       N/A   WCI  10
* NAVAJO       N/A       15  12  88 N8         N/A   WCI   4
* SACO         N/A       23  19  85 NW3        N/A
$$

MTZ028>042-056>058-260600-
SOUTHCENTRAL AND SOUTHEAST MONTANA
CITY           SKY/WX    TMP DP  RH WIND       PRES   REMARKS
BAKER          CLOUDY    25  21  85 N14       30.11R WCI  13
BILLINGS       CLOUDY    36  16  44 NW13      30.15R WCI  27
LIVINGSTON     LGT SNOW  28  27  96 W5        30.12S VSB 1    WCI  22
MILES CITY     CLOUDY    28  23  81 N6        30.17R WCI  21
* LAUREL APT   CLOUDY    34  16  48 W6         N/A   WCI  29
* ALZADA       N/A       28  24  85 NW12       N/A   WCI  18
* HYSHAM       N/A       28  21  75 NE3        N/A
* REED POINT   N/A       29  27  92 W2         N/A
* ROSCOE HILL  N/A       24  20  85 SW2        N/A
$$

REGIONAL REPORTS...DAKOTAS
CITY           SKY/WX    TMP DP  RH WIND       PRES   REMARKS
WILLISTON      CLOUDY    18  10  71 NE10      30.17R WCI   6
DICKINSON      CLOUDY    21  18  88 N14G25    30.06R WCI   8
BEACH          CLOUDY    21  19  92 N13       30.12R WCI   8
CROSBY         CLOUDY    14  10  84 E5        30.18S WCI   6
BISMARCK       CLOUDY    19  12  74 N18G26    30.05R WCI   4
GRAND FORKS    LGT SNOW  12   9  88 N15       30.13R WCI  -4
FARGO          LGT SNOW  23  19  85 N10       30.03R VSB 1 1/4 WCI  13
BUFFALO SD     PTCLDY    25  19  78 N22G31    30.00R WCI  10
RAPID CITY     CLOUDY    32  23  69 NW31G41   29.98R WCI  17
$$

REGIONAL REPORTS...WYOMING/IDAHO/WASHINGTON
CITY           SKY/WX    TMP DP  RH WIND       PRES   REMARKS
GILLETTE       CLOUDY    27  25  92 NW20      30.08R WCI  13
SHERIDAN       CLOUDY    30  23  75 NW18      30.13R WCI  18
CODY           CLOUDY    25  21  85 N3        30.14R VSB 1 3/4
YELLOWSTONE LA CLOUDY    30  27  89 CALM      30.07R
SALMON         CLOUDY    34  32  92 CALM      30.13R VSB 2
MULLAN PASS    LGT SNOW  27  25  92 S7        30.06S VSB 1    WCI  19
SAND POINT     LGT RAIN  32  32 100 CALM      30.20R
SPOKANE        LGT SNOW  34  34 100 N6        30.16F VSB 1/2  WCI  29
$$

REGIONAL REPORTS...ALBERTA
CITY           SKY/WX    TMP DP  RH WIND       PRES   REMARKS
CALGARY        LGT SNOW  25  21  85 S5        30.11R VSB 2 1/2 WCI  19
$$

REGIONAL REPORTS...SASKATCHEWAN
CITY           SKY/WX    TMP DP  RH WIND       PRES   REMARKS
SWIFT CURRENT  CLOUDY    12   9  88 E6        30.16R WCI   2

$$




USA.gov is the U.S. government's official web portal to all federal, state and local government web resources and services.